Lexington Weather

Lexington, Massachusetts, USA

29°F
3/6/2021 6:40pm 
  • Lexington Conditions: Partly cloudy
  • Temperature: 29.1°F / -1.6°CColder 1.6°F than last hour.
  • Dew Point: 12.4°FDecreased 0.5°Fsince last hour.
  • Relative Humidity: 49%Increased 2.0% since last hour.
  • Wind: Wind from NW NW 1 mph, 10-min avg: 2 mph, gust: 8 mph
  • Barometer: 30.02 inRising 0.03  inHg/hr Rising Slowly
  • Visibility: 10 miles
  • Snow Today: 0.0 in
  •   

Regional Weather Roundup
for Boston / Norton, MA

        
000
ASUS41 KBOX 040404
RWRBOX

REGIONAL WEATHER ROUNDUP
NATIONAL WEATHER SERVICE BOSTON/NORTON MA
1100 PM EST WED MAR 03 2021

NOTE:  "FAIR" INDICATES FEW OR NO CLOUDS BELOW 12,000 FEET WITH NO 
SIGNIFICANT WEATHER AND/OR OBSTRUCTIONS TO VISIBILITY.

MAZALL-040500-
EASTERN MASSACHUSETTS
  
CITY           SKY/WX    TMP DP  RH WIND       PRES   REMARKS
BOSTON         CLOUDY    43  24  47 W13       29.77F                  
BEVERLY        CLOUDY    39  24  55 NW5       29.76F                  
LAWRENCE       CLOUDY    38  25  59 NW8       29.78F                  
BEDFORD        CLOUDY    39  26  59 W8        29.76F                  
BLUE HILL        N/A     37  25  61 W12       29.74F WCI  29          
NORWOOD        CLOUDY    41  24  51 W8        29.77F                  
MARSHFIELD     CLOUDY    41  25  52 W3        29.77F                  
PLYMOUTH       CLOUDY    41  24  51 W7        29.77F                  
TAUNTON        CLOUDY    42  24  49 W6        29.78F                  
NEW BEDFORD    MOCLDY    39  23  52 W7        29.78F                  
$$

MAZALL-040500-
CAPE COD AND THE ISLANDS
  
CITY           SKY/WX    TMP DP  RH WIND       PRES   REMARKS
FALMOUTH       PTCLDY    37  23  56 W5        29.78F                  
HYANNIS        CLOUDY    42  24  49 W5        29.76F                  
CHATHAM        CLOUDY    40  24  53 W3        29.78F                  
PROVINCETOWN   CLOUDY    39  30  70 W10       29.77F                  
NANTUCKET        N/A    N/A N/A N/A MISG        N/A                   
MARTHAS VNYRD  CLOUDY    39  26  59 W3        29.79F                  
$$
 
MAZALL-040500-
CENTRAL AND WESTERN MASSACHUSETTS
  
CITY           SKY/WX    TMP DP  RH WIND       PRES   REMARKS
WORCESTER      CLOUDY    37  24  59 W10       29.75F WCI  30          
FITCHBURG      CLOUDY    38  27  64 NW6       29.77F                  
ORANGE         CLOUDY    38  25  59 W3        29.78F                  
SPRINGFIELD    MOCLDY    40  25  55 W8        29.78F                  
WESTFIELD      CLOUDY    39  27  62 W3        29.80F                  
NORTH ADAMS    CLOUDY    37  26  64 W12       29.79F WCI  29          
PITTSFIELD     CLOUDY    35  26  69 W12       29.77S WCI  27          
$$
 
RIZALL-040500-
RHODE ISLAND
  
CITY           SKY/WX    TMP DP  RH WIND       PRES   REMARKS
PROVIDENCE     PTCLDY    35  23  61 W5        29.80F WCI  31          
NEWPORT        MOCLDY    35  23  61 W3        29.79F                  
BLOCK ISLAND   PTCLDY    36  31  82 NW5       29.82S                  
SMITHFIELD     CLOUDY    38  25  59 W3        29.78F                  
WESTERLY       CLEAR     26  23  88 CALM      29.81F                  
$$
 
CTZALL-040500-
CONNECTICUT
  
CITY           SKY/WX    TMP DP  RH WIND       PRES   REMARKS
BRADLEY INTL   CLOUDY    38  24  57 W5        29.80F                  
HARTFORD       CLOUDY    34  27  75 CALM      29.82F                  
BRIDGEPORT     CLEAR     41  25  53 W6        29.83                   
DANBURY        PTCLDY    35  25  66 CALM      29.82F                  
GROTON         CLEAR     29  23  78 N3        29.81F                  
NEW HAVEN      CLEAR     41  26  55 CALM      29.82S                  
CHESTER        FAIR      37  18  44 CALM      29.80F                  
MERIDEN        CLEAR     27  22  81 CALM      29.82F                  
WILLIMANTIC    CLEAR     26  21  81 CALM      29.80F                  
OXFORD         CLOUDY    35  25  66 N3        29.81S                  
$$

MEZ002-015-021-024-NHZ003-005-008-011-012-014-VTZ005-008-040500-
NORTHERN NEW ENGLAND
  
CITY           SKY/WX    TMP DP  RH WIND       PRES   REMARKS
PORTLAND ME    CLEAR     30  21  69 NW6       29.76S WCI  24          
BANGOR ME      PTCLDY    25   9  50 NW5       29.69F WCI  19          
CONCORD NH     CLOUDY    34  24  67 NW10      29.78S WCI  26          
MANCHESTER NH  CLOUDY    37  25  61 N8        29.76S WCI  31          
NASHUA NH      CLOUDY    38  25  59 W8        29.78S                  
PORTSMOUTH NH  MOCLDY    35  22  57 W12G20    29.75S WCI  27          
JAFFREY NH     CLOUDY    36  25  64 W5        29.75S                  
KEENE NH       CLOUDY    33  28  81 CALM      29.78S                  
BURLINGTON VT  CLOUDY    28  23  81 CALM      29.82F                  
MT. WASHINGTON BLWGSNOW   1   1 100 NW55G61     N/A  VSB 0   WCI -30  
$$

NYZ052-076-040500-
EASTERN NEW YORK
  
CITY           SKY/WX    TMP DP  RH WIND       PRES   REMARKS
ALBANY         CLOUDY    36  27  69 W9        29.83S WCI  29          
NEW YORK CITY  MOCLDY    45  25  45 N3        29.83F                  
$$
 
ANZALL-040500-
MARINE OBSERVATIONS
  
STATION/POSITION TIME  TEMP    WIND        PRES    VSBY  WAVE
                       AIR SEA DIR/SP/G                  HT/PER
                 (UTC) (F)     (DEG/KT/KT) (MB)    (MI)  (FT/S)
BOSTON BUOY      NOT AVBL
BUZZARDS BAY     NOT AVBL
NANTUCKET SOUND  NOT AVBL
MASS BAY-STELLWA NOT AVBL
ISLE OF SHOALS   NOT AVBL
S OF BLOCK IS    NOT AVBL
$$

......................KEY.........................
  SKY/WX - SKY CONDITION/PRESENT WEATHER
  TMP    - TEMPERATURE IN FAHRENHEIT
  DWPT   - DEWPOINT IN FAHRENHEIT
  RH     - RELATIVE HUMIDITY IN PERCENT
  WIND   - DIRECTION AND SPEED IN MPH
  PRES   - MEAN SEA LEVEL PRESSURE IN INCHES OF HG
  WCI    - WIND CHILL INDEX
  VSB    - VISIBILITY IN MILES
  HX     - HEAT INDEX
  TC     - TEMPERATURE IN CELSIUS
  VRB    - VARIABLE WIND DIRECTION
  N/A    - NOT AVAILABLE
  
      

Other recent Regional Weather Roundups

Sat Mar 6, 6:04pm

Sat Mar 6, 5:04pm

Sat Mar 6, 4:05pm

Sat Mar 6, 3:04pm

Sat Mar 6, 2:04pm

Sat Mar 6, 1:05pm

Sat Mar 6, 12:04pm

Sat Mar 6, 11:04am

Sat Mar 6, 10:04am

Sat Mar 6, 9:04am

Sat Mar 6, 8:04am

Sat Mar 6, 7:04am

Sat Mar 6, 6:04am

Sat Mar 6, 5:04am

Sat Mar 6, 4:04am

Sat Mar 6, 3:04am

Sat Mar 6, 2:04am

Sat Mar 6, 1:04am

Sat Mar 6, 12:04am

Fri Mar 5, 11:04pm

Fri Mar 5, 10:04pm

Fri Mar 5, 9:04pm

Fri Mar 5, 8:04pm

Fri Mar 5, 7:04pm

Fri Mar 5, 6:04pm

Fri Mar 5, 5:04pm

Fri Mar 5, 4:05pm

Fri Mar 5, 3:04pm

Fri Mar 5, 2:04pm

Fri Mar 5, 1:04pm

Fri Mar 5, 12:04pm

Fri Mar 5, 11:04am

Fri Mar 5, 10:04am

Fri Mar 5, 9:04am

Fri Mar 5, 8:04am

Fri Mar 5, 7:04am

Fri Mar 5, 6:04am

Fri Mar 5, 5:04am

Fri Mar 5, 4:04am

Fri Mar 5, 3:04am

Fri Mar 5, 2:04am

Fri Mar 5, 1:04am

Fri Mar 5, 12:04am

Thu Mar 4, 11:04pm

Thu Mar 4, 10:04pm

Thu Mar 4, 9:04pm

Thu Mar 4, 8:04pm

Thu Mar 4, 7:04pm

Thu Mar 4, 6:04pm

Thu Mar 4, 5:04pm

Thu Mar 4, 4:04pm

Thu Mar 4, 3:04pm

Thu Mar 4, 2:04pm

Thu Mar 4, 1:04pm

Thu Mar 4, 12:04pm

Thu Mar 4, 11:04am

Thu Mar 4, 10:04am

Thu Mar 4, 9:04am

Thu Mar 4, 8:04am

Thu Mar 4, 7:04am

Thu Mar 4, 6:04am

Thu Mar 4, 5:04am

Thu Mar 4, 4:04am

Thu Mar 4, 3:04am

Thu Mar 4, 2:04am

Thu Mar 4, 1:04am

Thu Mar 4, 12:04am

Wed Mar 3, 10:04pm

Wed Mar 3, 9:04pm

Wed Mar 3, 8:04pm

Wed Mar 3, 7:04pm

Wed Mar 3, 6:04pm

Wed Mar 3, 5:04pm

Wed Mar 3, 4:04pm

Wed Mar 3, 3:04pm

Wed Mar 3, 2:04pm

Wed Mar 3, 1:04pm

Wed Mar 3, 12:04pm

Wed Mar 3, 11:04am

Wed Mar 3, 10:04am

Wed Mar 3, 9:04am

Wed Mar 3, 8:04am

Wed Mar 3, 7:04am

Wed Mar 3, 6:05am

Wed Mar 3, 5:04am

Wed Mar 3, 4:04am

Wed Mar 3, 3:04am

Wed Mar 3, 2:04am

Wed Mar 3, 1:04am

Wed Mar 3, 12:04am

Tue Mar 2, 11:04pm

Tue Mar 2, 10:05pm

Tue Mar 2, 9:04pm

Tue Mar 2, 8:04pm

Tue Mar 2, 7:04pm

Tue Mar 2, 6:04pm

Tue Mar 2, 5:04pm

Tue Mar 2, 4:05pm

Tue Mar 2, 3:04pm

Tue Mar 2, 2:04pm

Tue Mar 2, 1:04pm

Tue Mar 2, 12:04pm

Tue Mar 2, 11:04am

Tue Mar 2, 10:05am

Tue Mar 2, 9:04am

Tue Mar 2, 8:04am

Tue Mar 2, 7:04am

Tue Mar 2, 6:05am

Tue Mar 2, 5:04am

Tue Mar 2, 4:04am

Tue Mar 2, 3:04am

Tue Mar 2, 2:04am

Tue Mar 2, 1:04am

Tue Mar 2, 12:04am

Mon Mar 1, 11:04pm

Mon Mar 1, 10:04pm

Mon Mar 1, 9:04pm

Mon Mar 1, 8:04pm

Mon Mar 1, 7:04pm

Mon Mar 1, 6:04pm

Mon Mar 1, 5:04pm

Mon Mar 1, 4:05pm

Mon Mar 1, 3:05pm

Mon Mar 1, 2:04pm

Mon Mar 1, 1:04pm

Mon Mar 1, 12:04pm

Mon Mar 1, 11:04am

Mon Mar 1, 10:04am

Mon Mar 1, 9:04am

Mon Mar 1, 8:05am

Mon Mar 1, 7:04am

Mon Mar 1, 6:04am

Mon Mar 1, 5:04am

Mon Mar 1, 4:05am

Mon Mar 1, 3:04am

Mon Mar 1, 2:04am

Mon Mar 1, 1:04am

Mon Mar 1, 12:05am

Sun Feb 28, 11:04pm

Sun Feb 28, 10:04pm

Sun Feb 28, 9:04pm

Sun Feb 28, 8:04pm

Sun Feb 28, 7:04pm

Sun Feb 28, 6:05pm

Sun Feb 28, 5:04pm

Sun Feb 28, 4:05pm

Sun Feb 28, 3:04pm

Sun Feb 28, 2:04pm

Sun Feb 28, 1:04pm

Sun Feb 28, 12:04pm

Sun Feb 28, 11:04am

Sun Feb 28, 10:04am

Sun Feb 28, 9:04am

Sun Feb 28, 8:04am

Sun Feb 28, 7:04am

Sun Feb 28, 6:04am

Sun Feb 28, 5:04am

Sun Feb 28, 4:04am

Sun Feb 28, 3:04am

Sun Feb 28, 2:04am

Sun Feb 28, 1:04am

Sun Feb 28, 12:04am

Sat Feb 27, 11:04pm

Sat Feb 27, 10:04pm

Sat Feb 27, 9:04pm

Sat Feb 27, 8:04pm

Sat Feb 27, 7:04pm

Meta data:

ID: 0ccd479c-7a23-4d1b-99de-2d46bda92baa
Link: https://api.weather.gov/products/0ccd479c-7a23-4d1b-99de-2d46bda92baa